Find Starlink 33905

NORAD ID: 63881 Int'l Des: 2025-094 Owner: SPXS Country: US Constellation: starlink operational
LEOCIRCULAR

現在のビュー

3D地球を読み込み中...

Starlink 33905について

説明を読み込み中...

次回通過

Passes for default location (London). Set your location on the main map for personalized predictions.

高度履歴

Loading altitude history...

軌道要素

1 63881U 25094T 26150.04775891 .00007152 00000-0 60636-3 0 9990
2 63881 70.0027 29.1777 0002964 269.5475 90.5344 14.98341559 59396
Epoch: May 30, 2026 • Age: 11 hours

現在のステータス

高度 583.8 km
速度 7.57 km/s
衛星直下点 -36.07°S, 58.14°W
打ち上げ日 May 10, 2025
運用期間 1 years
タイプ internet

技術仕様

分類 Payload
質量 575.00 kg
乾燥質量 530.00 kg
総質量 575.00 kg
長さ 0.30 m
直径 4.10 m
スパン 29.00 m
形状 Box + pan
製造者 SPXS
バスタイプ Starlink V2MO
フェーズステータス In Orbit
所有者/国 SPXS/US

Most Searched